STARLINK-32320, 61638

Orbit data source: Space-Track

STARLINK-32320, 61638 is a payload satellite owned by SpaceX/Seattle (US) in LEO that was launched on Wed, 23 Oct 2024 UTC via an FALCON 9 launch vehicle from the Air Force Eastern Test Range (AFETR). Payload-class satellites include a variety of spacecraft equipped with specific instruments for various scientific and technological missions. These include communications satellites like Starlink; space stations such as the ISS; scientific satellites like the Hubble; Earth observation satellites from companies like Planet Labs, Umbra, and HawkEye 360; GPS; miniature CubeSats for education and research; and military/defense satellites.

Loading next visibility...
Identifier
61638, 2024-191T
Orbit
LEO
Country
Flag of USUS
Related business
Manufacturer
SpaceX/Seattle
Mission
Operational Commercial Communications
Bus & Motor
STARLINK V2M, Unknown motor
Mass
730 kg wet, ~700 kg dry
Launch date (UTC)
2024-10-23 (1 year ago)
Launch vehicle
FALCON 9
Launch site
Air Force Eastern Test Range (AFETR)
Object type
Payload
Rocket body
Debris
Shape & HBR
Box + 2 Pan, 17.7 m
Radar Cross Section
33.884 m², Large (>1 m²)

Expand to show TLE details & history
Last TLE update: 19 hours ago

TLE from 19 hours ago
0 STARLINK-32320
1 61638U 24191T   25286.25764427 -.00001355  00000-0 -39701-4 0  9991
2 61638  43.0029 271.0094 0001423 285.5949  74.4746 15.27583971 54941
Epoch: 2025-10-13T06:11Z
TLE epoch observation values (Epoch: 2025-10-13T06:11:00.464Z)
Latitude
-0.00001°
Longitude
156.19444°
Altitude
482.552 km
Speed
7.626 km/s
True Right ascension
18h 04m 02s
True Declination
0° 00' 00"
Sunlit
Object was in daylight at epoch
Visualization orbit readout
Latitude
Unknown
Longitude
Unknown
Altitude
Unknown
Speed
Unknown
Apparent Right ascension
Unknown
Apparent Declination
Unknown
Sunlit
N/A
Visualization observer readout
Local Sidereal Time
19:59:44
Azimuth
Unknown
Elevation
Unknown
Doppler factor
Unknown
Orbital elements
Apogee altitude
485.959 km
Perigee altitude
484.005 km
Semi-major axis
6,863.119 km
Eccentricity
0.00014
Inclination
43.0029°
RAAN
271.0094°
Arg. of periapsis
285.5949°
True anomaly
74.49031°
Mean anomaly
74.4746°
Eccentric anomaly
74.48246°
Mean motion
3.81734 °/min
Orbital period
94.31 mins
BSTAR
-0.000039701
Loading maneuver chart data...
Computing Atmospheric mass density...
Loading historical data...
Loading historical data...
Loading historical data...
Loading historical data...
Loading historical data...
Loading historical data...
Loading historical data...

Documentation

Showing up to 5 results
|